Regional Weather Roundup
Issued by NWS

Home | Current Version | Previous Version | Graphics & Text | Print | Product List | Glossary On
Versions: 1 2 3 4 5 6 7 8 9 10 11 12 13 14 15 16 17 18 19 20 21 22 23 24 25 26 27 28 29 30 31 32 33 34 35 36 37 38 39 40 41 42 43 44 45 46 47 48 49 50
000
ASUS45 KABQ 200310
RWRNM
WEATHER ROUNDUP FOR NEW MEXICO
NATIONAL WEATHER SERVICE ALBUQUERQUE NM
900 PM MDT SAT APR 19 2014

NOTE: "FAIR" MEANS FEW OR NO CLOUDS BELOW 12,000 FEET AGL WITH NO
       SIGNIFICANT WEATHER OR OBSTRUCTIONS TO VISION.

      THIS PRODUCT IS RELEASED AS TWO VERSIONS.  ONE VERSION NEAR
      THE TOP OF THE HOUR CONTAINING PRELIMINARY DATA FROM ALBUQUERQUE
      AND OTHER STATIONS.  A FINAL VERSION WITH ADDITIONAL DATA IS
      ISSUED ABOUT 10 MINUTES AFTER THE HOUR.

NMZ501-503-504-510>518-200400-
NORTHWEST PLATEAU/NORTHCENTRAL MOUNTAINS

CITY           SKY/WX    TMP DP  RH WIND       PRES   REMARKS
FARMINGTON     CLEAR     61  30  31 W7        30.05R
LOS ALAMOS     CLOUDY    48  41  77 S8        30.17R
SANTA FE       LGT RAIN  50  43  77 SW9       30.14R
TAOS           CLOUDY    48  36  61 NW5       30.18R
ANGEL FIRE     CLOUDY    44  39  82 CALM      30.19R

$$
NMZ402-403-502-505>509-200400-
WESTCENTRAL MOUNTAINS/SOUTHWEST MOUNTAINS

CITY           SKY/WX    TMP DP  RH WIND       PRES   REMARKS
GALLUP         CLOUDY    48  40  73 SW10      30.16R
GRANTS         MOCLDY    49  37  63 W5        30.16S
SILVER CITY    CLOUDY    54  41  62 NW5       30.14S

$$
NMZ407-409-411-412-200400-
SOUTHERN DESERTS

CITY           SKY/WX    TMP DP  RH WIND       PRES   REMARKS
LORDSBURG      CLOUDY    55  46  71 SW6       30.11R
DEMING         CLOUDY    57  43  59 S3        30.09R
LAS CRUCES     CLOUDY    57  44  61 NE6       30.11S
HOLLOMAN AFB   MOCLDY    56  51  84 E5        30.10S
ALAMOGORDO     MOCLDY    54  48  82 E3        30.12R
T OR C         CLOUDY    55  46  71 NW7       30.11R

$$
NMZ519>523-200400-
CENTRAL VALLEYS/CENTRAL HIGHLANDS

CITY           SKY/WX    TMP DP  RH WIND       PRES   REMARKS
ALBUQUERQUE    CLOUDY    50  46  86 NE13      30.13R
MORIARTY ARPT  CLOUDY    50  45  82 CALM      30.16R
CLINES CORNERS CLOUDY    46  43  89 NW10      30.15R
BELEN          CLOUDY    52  49  90 S6        30.13R
SOCORRO        CLOUDY    56  47  72 SW10      30.10S THUNDER

$$
NMZ524>526-539-540-200400-
SOUTHCENTRAL MOUNTAINS

CITY           SKY/WX    TMP DP  RH WIND       PRES   REMARKS
RUIDOSO        CLOUDY    43  39  87 W15       30.21S

$$
NMZ527>531-200400-
NORTHEAST HIGHLANDS/NORTHEAST PLAINS

CITY           SKY/WX    TMP DP  RH WIND       PRES   REMARKS
LAS VEGAS      CLOUDY    45  41  86 S9        30.13R
RATON          CLOUDY    51  44  77 E5        30.09R
CLAYTON        CLOUDY    56  44  64 SW9       30.04R

$$
NMZ532>537-200400-
EASTCENTRAL PLAINS

CITY           SKY/WX    TMP DP  RH WIND       PRES   REMARKS
TUCUMCARI      MOCLDY    56  50  80 S9        30.06R
CANNON AFB     CLOUDY    55  51  87 S13       30.11R
CLOVIS AIRPORT CLOUDY    54  48  82 S9        30.13R

$$
NMZ028-029-538-200400-
SOUTHEAST PLAINS

CITY           SKY/WX    TMP DP  RH WIND       PRES   REMARKS
ROSWELL        CLOUDY    58  48  69 S14       30.04F
ARTESIA        MOCLDY    55  48  76 W10G16    30.08F
CARLSBAD       MOCLDY    60  56  86 N3        30.10R
HOBBS          CLOUDY    57  57 100 W5        30.14R


$$



USA.gov is the U.S. government's official web portal to all federal, state and local government web resources and services.